Tracking 35280 objects as of 7-Sep-2026
HD Live streaming from Space Station
objects crossing your sky now

STARLINK-1751


STARLINK-1751 is no longer on orbit
STARLINK-1751 is classified as:


NORAD ID: 46378
Int'l Code: 2020-062BF
Launch date: September 3, 2020
Source: United States (US)
Launch site: AIR FORCE EASTERN TEST RANGE (AFETR)
Decay date: 2022-02-09
Your satellite tracking list
Your tracking list is empty




NASA's NSSDC Master Catalog

Two Line Element Set (TLE):
1 46378U 20062BF  22040.75516726  .20470174  12254-4  35619-2 0  9994
2 46378  53.0287 135.8028 0006538 358.3471   1.8252 16.32048383 81246
Source of the keplerian elements: AFSPC